When you browse on this site, cookies collect data to enhance your experience and personalize the content and advertising you see.
Visit our Privacy Policy to learn more. By continuing to use the site, you agree to this use of cookies and data.
  • en France
  • Liste des pays
  • À 7 jours
  • Température de l'eau
  • Carte satellitaire
  • Carte météo
  • Widgets météo
  • user-avatar
    Se connecter

    Météo par heure à Wubao

    Ce jour, 19 Juillet, Vendredi

    Heure Température Précipitation Vent Pression Humidité
    00:00 +30°C° 0 mm 2 m/s 749 mmHg 76%
    01:00 +30°C° 0 mm 2 m/s 748 mmHg 76%
    02:00 +29°C° 0 mm 1 m/s 748 mmHg 84%
    03:00 +29°C° 0 mm 2 m/s 748 mmHg 85%
    04:00 +29°C° 0 mm 2 m/s 748 mmHg 85%
    05:00 +29°C° 0 mm 3 m/s 748 mmHg 85%
    06:00 +30°C° 0 mm 3 m/s 749 mmHg 81%
    07:00 +31°C° 0 mm 3 m/s 749 mmHg 77%
    08:00 +33°C° 0 mm 3 m/s 749 mmHg 73%
    09:00 +35°C° 0.1 mm 4 m/s 749 mmHg 69%
    10:00 +36°C° 0.1 mm 4 m/s 750 mmHg 64%
    11:00 +37°C° 0.1 mm 4 m/s 750 mmHg 60%
    12:00 +39°C° 0.1 mm 5 m/s 749 mmHg 58%
    13:00 +39°C° 0.1 mm 5 m/s 749 mmHg 57%
    14:00 +40°C° 0.1 mm 5 m/s 749 mmHg 55%
    15:00 +37°C° 0 mm 5 m/s 749 mmHg 60%
    16:00 +36°C° 0 mm 5 m/s 749 mmHg 65%
    17:00 +35°C° 0 mm 5 m/s 749 mmHg 70%
    18:00 +34°C° 0 mm 6 m/s 749 mmHg 74%
    19:00 +33°C° 0 mm 6 m/s 750 mmHg 77%
    20:00 +32°C° 0 mm 6 m/s 750 mmHg 81%
    21:00 +32°C° 0.1 mm 6 m/s 751 mmHg 82%
    22:00 +32°C° 0.1 mm 6 m/s 751 mmHg 82%
    23:00 +32°C° 0.1 mm 6 m/s 751 mmHg 83%

    Demain, 20 Juillet, Samedi

    Heure Température Précipitation Vent Pression Humidité
    00:00 +32°C° 0 mm 6 m/s 751 mmHg 83%
    01:00 +30°C° 0 mm 6 m/s 751 mmHg 83%
    02:00 +30°C° 0 mm 6 m/s 751 mmHg 83%
    03:00 +30°C° 0 mm 6 m/s 751 mmHg 84%
    04:00 +30°C° 0 mm 6 m/s 751 mmHg 84%
    05:00 +30°C° 0 mm 5 m/s 751 mmHg 84%
    06:00 +32°C° 0 mm 5 m/s 752 mmHg 81%
    07:00 +33°C° 0 mm 5 m/s 752 mmHg 77%
    08:00 +34°C° 0 mm 5 m/s 752 mmHg 73%
    09:00 +35°C° 0.3 mm 6 m/s 752 mmHg 70%
    10:00 +36°C° 0.3 mm 7 m/s 752 mmHg 68%
    11:00 +37°C° 0.3 mm 8 m/s 753 mmHg 65%
    12:00 +37°C° 0.4 mm 8 m/s 752 mmHg 66%
    13:00 +37°C° 0.4 mm 9 m/s 752 mmHg 68%
    14:00 +37°C° 0.4 mm 10 m/s 752 mmHg 69%
    15:00 +36°C° 0.6 mm 10 m/s 752 mmHg 72%
    16:00 +34°C° 0.6 mm 11 m/s 752 mmHg 75%
    17:00 +33°C° 0.6 mm 11 m/s 752 mmHg 77%
    18:00 +33°C° 0.7 mm 10 m/s 752 mmHg 78%
    19:00 +32°C° 0.7 mm 9 m/s 753 mmHg 78%
    20:00 +32°C° 0.7 mm 8 m/s 753 mmHg 78%
    21:00 +32°C° 0 mm 7 m/s 753 mmHg 80%
    22:00 +30°C° 0 mm 7 m/s 753 mmHg 81%
    23:00 +30°C° 0 mm 6 m/s 754 mmHg 83%

    Après-demain, 21 Juillet, Dimanche

    Heure Température Précipitation Vent Pression Humidité
    00:00 +30°C° 0 mm 6 m/s 753 mmHg 83%
    01:00 +29°C° 0 mm 6 m/s 753 mmHg 83%
    02:00 +29°C° 0 mm 6 m/s 753 mmHg 84%
    03:00 +29°C° 0.1 mm 6 m/s 753 mmHg 84%
    04:00 +29°C° 0.1 mm 5 m/s 753 mmHg 84%
    05:00 +29°C° 0.1 mm 5 m/s 753 mmHg 85%
    06:00 +29°C° 0.1 mm 5 m/s 753 mmHg 83%
    07:00 +30°C° 0.1 mm 5 m/s 754 mmHg 81%
    08:00 +32°C° 0.1 mm 6 m/s 754 mmHg 79%
    09:00 +33°C° 0 mm 6 m/s 754 mmHg 75%
    10:00 +34°C° 0 mm 7 m/s 754 mmHg 70%
    11:00 +35°C° 0 mm 8 m/s 754 mmHg 66%
    12:00 +35°C° 0 mm 7 m/s 753 mmHg 65%
    13:00 +36°C° 0 mm 7 m/s 753 mmHg 64%
    14:00 +36°C° 0 mm 7 m/s 753 mmHg 63%
    15:00 +35°C° 0 mm 7 m/s 752 mmHg 68%
    16:00 +34°C° 0 mm 7 m/s 752 mmHg 72%
    17:00 +33°C° 0 mm 7 m/s 752 mmHg 77%
    18:00 +32°C° 0.8 mm 7 m/s 752 mmHg 80%
    19:00 +30°C° 0.8 mm 6 m/s 753 mmHg 82%
    20:00 +30°C° 0.8 mm 6 m/s 753 mmHg 85%
    21:00 +30°C° 0 mm 6 m/s 753 mmHg 86%
    22:00 +29°C° 0 mm 6 m/s 754 mmHg 87%
    23:00 +29°C° 0 mm 6 m/s 754 mmHg 88%

    22 Juillet, Lundi

    Heure Température Précipitation Vent Pression Humidité
    00:00 +29°C° 0.1 mm 6 m/s 754 mmHg 89%
    01:00 +29°C° 0.1 mm 6 m/s 753 mmHg 90%
    02:00 +29°C° 0.1 mm 6 m/s 753 mmHg 90%
    03:00 +29°C° 1.3 mm 6 m/s 753 mmHg 90%
    04:00 +29°C° 1.3 mm 6 m/s 753 mmHg 90%
    05:00 +29°C° 1.3 mm 6 m/s 753 mmHg 89%
    06:00 +30°C° 0.3 mm 7 m/s 753 mmHg 86%
    07:00 +30°C° 0.3 mm 7 m/s 754 mmHg 83%
    08:00 +32°C° 0.3 mm 7 m/s 754 mmHg 80%
    09:00 +33°C° 0.2 mm 7 m/s 754 mmHg 75%
    10:00 +34°C° 0.2 mm 7 m/s 754 mmHg 70%
    11:00 +35°C° 0.2 mm 7 m/s 754 mmHg 65%
    12:00 +35°C° 0.1 mm 7 m/s 753 mmHg 67%
    13:00 +35°C° 0.1 mm 7 m/s 753 mmHg 68%
    14:00 +35°C° 0.1 mm 7 m/s 752 mmHg 69%
    15:00 +34°C° 0 mm 7 m/s 752 mmHg 70%
    16:00 +34°C° 0 mm 7 m/s 752 mmHg 72%
    17:00 +33°C° 0 mm 7 m/s 751 mmHg 74%
    18:00 +32°C° 0 mm 7 m/s 752 mmHg 76%
    19:00 +32°C° 0 mm 6 m/s 752 mmHg 79%
    20:00 +30°C° 0 mm 6 m/s 753 mmHg 82%
    21:00 +30°C° 0 mm 6 m/s 753 mmHg 83%
    22:00 +29°C° 0 mm 6 m/s 754 mmHg 84%
    23:00 +29°C° 0 mm 5 m/s 754 mmHg 85%

    23 Juillet, Mardi

    Heure Température Précipitation Vent Pression Humidité
    00:00 +29°C° 0 mm 5 m/s 754 mmHg 85%
    01:00 +29°C° 0 mm 5 m/s 753 mmHg 86%
    02:00 +29°C° 0 mm 5 m/s 753 mmHg 87%
    03:00 +29°C° 0 mm 5 m/s 753 mmHg 88%
    04:00 +29°C° 0 mm 5 m/s 753 mmHg 89%
    05:00 +28°C° 0 mm 4 m/s 753 mmHg 90%
    06:00 +29°C° 0 mm 4 m/s 753 mmHg 85%
    07:00 +30°C° 0 mm 4 m/s 753 mmHg 80%
    08:00 +31°C° 0 mm 3 m/s 754 mmHg 74%
    09:00 +33°C° 0 mm 4 m/s 754 mmHg 71%
    10:00 +34°C° 0 mm 5 m/s 754 mmHg 67%
    11:00 +35°C° 0 mm 5 m/s 754 mmHg 63%
    12:00 +35°C° 0 mm 5 m/s 753 mmHg 63%
    13:00 +35°C° 0 mm 5 m/s 753 mmHg 63%
    14:00 +35°C° 0 mm 5 m/s 752 mmHg 62%
    15:00 +34°C° 0 mm 6 m/s 752 mmHg 65%
    16:00 +34°C° 0 mm 6 m/s 752 mmHg 67%
    17:00 +33°C° 0 mm 6 m/s 752 mmHg 69%
    18:00 +32°C° 0 mm 6 m/s 752 mmHg 74%
    19:00 +32°C° 0 mm 6 m/s 753 mmHg 78%
    20:00 +30°C° 0 mm 5 m/s 753 mmHg 82%
    21:00 +30°C° 0.4 mm 5 m/s 754 mmHg 82%
    22:00 +29°C° 0.4 mm 5 m/s 754 mmHg 83%
    23:00 +29°C° 0.4 mm 5 m/s 754 mmHg 84%

    24 Juillet, Mercredi

    Heure Température Précipitation Vent Pression Humidité
    00:00 +29°C° 0.2 mm 5 m/s 754 mmHg 84%
    01:00 +29°C° 0.2 mm 5 m/s 754 mmHg 85%
    02:00 +29°C° 0.2 mm 5 m/s 753 mmHg 86%
    03:00 +29°C° 0 mm 5 m/s 753 mmHg 87%
    04:00 +29°C° 0 mm 5 m/s 753 mmHg 87%
    05:00 +28°C° 0 mm 5 m/s 753 mmHg 88%
    06:00 +29°C° 0 mm 5 m/s 753 mmHg 85%
    07:00 +30°C° 0 mm 5 m/s 753 mmHg 81%
    08:00 +32°C° 0 mm 5 m/s 754 mmHg 77%
    09:00 +33°C° 0 mm 6 m/s 754 mmHg 73%
    10:00 +33°C° 0 mm 6 m/s 754 mmHg 70%
    11:00 +34°C° 0 mm 6 m/s 754 mmHg 66%
    12:00 +35°C° 0 mm 6 m/s 754 mmHg 66%
    13:00 +35°C° 0 mm 7 m/s 754 mmHg 65%
    14:00 +35°C° 0 mm 7 m/s 753 mmHg 64%
    15:00 +35°C° 0 mm 7 m/s 753 mmHg 66%
    16:00 +34°C° 0 mm 7 m/s 753 mmHg 68%
    17:00 +34°C° 0 mm 7 m/s 753 mmHg 69%
    18:00 +33°C° 0 mm 7 m/s 753 mmHg 73%
    19:00 +32°C° 0 mm 7 m/s 754 mmHg 77%
    20:00 +30°C° 0 mm 7 m/s 755 mmHg 81%
    21:00 +30°C° 0 mm 6 m/s 755 mmHg 83%
    22:00 +30°C° 0 mm 6 m/s 755 mmHg 85%
    23:00 +29°C° 0 mm 6 m/s 756 mmHg 87%
    Voir plus